Year,Month,Day,Hour,Minute,Value (Times are PST for windspeed in km/hr)
2010,05,04,00,00,6.80
2010,05,04,00,01,3.90
2010,05,04,00,02,10.40
2010,05,04,00,03,7.60
2010,05,04,00,04,5.00
2010,05,04,00,05,0.90
2010,05,04,00,06,8.80
2010,05,04,00,07,3.90
2010,05,04,00,08,9.60
2010,05,04,00,09,18.90
2010,05,04,00,10,12.10
2010,05,04,00,11,5.60
2010,05,04,00,12,8.00
2010,05,04,00,13,7.90
2010,05,04,00,14,1.80
2010,05,04,00,15,10.70
2010,05,04,00,16,10.60
2010,05,04,00,17,8.10
2010,05,04,00,18,13.30
2010,05,04,00,19,13.40
2010,05,04,00,20,7.70
2010,05,04,00,21,11.50
2010,05,04,00,22,5.90
2010,05,04,00,23,6.90
2010,05,04,00,24,6.90
2010,05,04,00,25,7.60
2010,05,04,00,26,8.00
2010,05,04,00,27,6.10
2010,05,04,00,28,12.00
2010,05,04,00,29,9.40
2010,05,04,00,30,6.80
2010,05,04,00,31,7.10
2010,05,04,00,32,5.10
2010,05,04,00,33,5.80
2010,05,04,00,34,7.20
2010,05,04,00,35,11.30
2010,05,04,00,36,8.70
2010,05,04,00,37,10.10
2010,05,04,00,38,15.40
2010,05,04,00,39,8.80
2010,05,04,00,40,7.70
2010,05,04,00,41,10.00
2010,05,04,00,42,6.40
2010,05,04,00,43,9.50
2010,05,04,00,44,6.10
2010,05,04,00,45,9.30
2010,05,04,00,46,10.40
2010,05,04,00,47,10.40
2010,05,04,00,48,12.20
2010,05,04,00,49,10.60
2010,05,04,00,50,9.70
2010,05,04,00,51,14.80
2010,05,04,00,52,10.40
2010,05,04,00,53,13.90
2010,05,04,00,54,8.50
2010,05,04,00,55,8.50
2010,05,04,00,56,13.30
2010,05,04,00,57,11.30
2010,05,04,00,58,2.30
2010,05,04,00,59,4.50
2010,05,04,01,00,0.50
2010,05,04,01,01,6.90
2010,05,04,01,02,3.70
2010,05,04,01,03,5.80
2010,05,04,01,04,9.90
2010,05,04,01,05,6.40
2010,05,04,01,06,7.90
2010,05,04,01,07,10.10
2010,05,04,01,08,11.40
2010,05,04,01,09,12.20
2010,05,04,01,10,8.10
2010,05,04,01,11,9.30
2010,05,04,01,12,6.90
2010,05,04,01,13,8.20
2010,05,04,01,14,11.30
2010,05,04,01,15,8.50
2010,05,04,01,16,13.40
2010,05,04,01,17,14.20
2010,05,04,01,18,12.50
2010,05,04,01,19,8.70
2010,05,04,01,20,3.60
2010,05,04,01,21,5.10
2010,05,04,01,22,6.40
2010,05,04,01,23,11.30
2010,05,04,01,24,4.70
2010,05,04,01,25,3.70
2010,05,04,01,26,0.60
2010,05,04,01,27,0.50
2010,05,04,01,28,0.50
2010,05,04,01,29,1.80
2010,05,04,01,30,3.60
2010,05,04,01,31,0.50
2010,05,04,01,32,0.70
2010,05,04,01,33,2.70
2010,05,04,01,34,3.70
2010,05,04,01,35,6.30
2010,05,04,01,36,6.10
2010,05,04,01,37,5.60
2010,05,04,01,38,0.60
2010,05,04,01,39,2.20
2010,05,04,01,40,8.70
2010,05,04,01,41,3.10
2010,05,04,01,42,8.00
2010,05,04,01,43,6.00
2010,05,04,01,44,4.30
2010,05,04,01,45,0.50
2010,05,04,01,46,3.10
2010,05,04,01,47,0.80
2010,05,04,01,48,0.90
2010,05,04,01,49,0.10
2010,05,04,01,50,0.00
2010,05,04,01,51,0.50
2010,05,04,01,52,0.90
2010,05,04,01,53,2.30
2010,05,04,01,54,2.00
2010,05,04,01,55,0.50
2010,05,04,01,56,2.80
2010,05,04,01,57,4.50
2010,05,04,01,58,2.70
2010,05,04,01,59,6.40
2010,05,04,02,00,7.60
2010,05,04,02,01,1.30
2010,05,04,02,02,4.60
2010,05,04,02,03,3.30
2010,05,04,02,04,2.50
2010,05,04,02,05,0.10
2010,05,04,02,06,0.20
2010,05,04,02,07,2.30
2010,05,04,02,08,3.00
2010,05,04,02,09,4.80
2010,05,04,02,10,5.30
2010,05,04,02,11,5.00
2010,05,04,02,12,3.60
2010,05,04,02,13,2.30
2010,05,04,02,14,3.80
2010,05,04,02,15,5.70
2010,05,04,02,16,7.20
2010,05,04,02,17,6.50
2010,05,04,02,18,4.90
2010,05,04,02,19,6.00
2010,05,04,02,20,5.60
2010,05,04,02,21,1.50
2010,05,04,02,22,4.30
2010,05,04,02,23,6.00
2010,05,04,02,24,5.50
2010,05,04,02,25,6.60
2010,05,04,02,26,1.50
2010,05,04,02,27,1.90
2010,05,04,02,28,4.60
2010,05,04,02,29,1.40
2010,05,04,02,30,0.30
2010,05,04,02,31,5.10
2010,05,04,02,32,0.20
2010,05,04,02,33,5.20
2010,05,04,02,34,5.60
2010,05,04,02,35,0.30
2010,05,04,02,36,1.60
2010,05,04,02,37,4.40
2010,05,04,02,38,4.80
2010,05,04,02,39,4.80
2010,05,04,02,40,4.80
2010,05,04,02,41,4.60
2010,05,04,02,42,4.00
2010,05,04,02,43,3.10
2010,05,04,02,44,5.70
2010,05,04,02,45,6.40
2010,05,04,02,46,4.30
2010,05,04,02,47,7.20
2010,05,04,02,48,6.40
2010,05,04,02,49,5.10
2010,05,04,02,50,4.20
2010,05,04,02,51,8.70
2010,05,04,02,52,7.20
2010,05,04,02,53,2.40
2010,05,04,02,54,6.70
2010,05,04,02,55,1.40
2010,05,04,02,56,1.90
2010,05,04,02,57,3.50
2010,05,04,02,58,1.70
2010,05,04,02,59,12.40
2010,05,04,03,00,5.60
2010,05,04,03,01,6.40
2010,05,04,03,02,7.50
2010,05,04,03,03,3.00
2010,05,04,03,04,2.90
2010,05,04,03,05,3.90
2010,05,04,03,06,5.90
2010,05,04,03,07,4.30
2010,05,04,03,08,3.10
2010,05,04,03,09,8.20
2010,05,04,03,10,3.80
2010,05,04,03,11,3.50
2010,05,04,03,12,6.90
2010,05,04,03,13,3.20
2010,05,04,03,14,6.10
2010,05,04,03,15,2.00
2010,05,04,03,16,1.80
2010,05,04,03,17,0.80
2010,05,04,03,18,0.30
2010,05,04,03,19,7.70
2010,05,04,03,20,7.00
2010,05,04,03,21,3.60
2010,05,04,03,22,6.30
2010,05,04,03,23,3.90
2010,05,04,03,24,1.00
2010,05,04,03,25,3.00
2010,05,04,03,26,2.20
2010,05,04,03,27,0.90
2010,05,04,03,28,1.60
2010,05,04,03,29,2.90
2010,05,04,03,30,5.30
2010,05,04,03,31,5.30
2010,05,04,03,32,6.70
2010,05,04,03,33,3.10
2010,05,04,03,34,4.50
2010,05,04,03,35,7.70
2010,05,04,03,36,9.70
2010,05,04,03,37,8.90
2010,05,04,03,38,6.40
2010,05,04,03,39,0.00
2010,05,04,03,40,1.80
2010,05,04,03,41,4.70
2010,05,04,03,42,3.30
2010,05,04,03,43,3.50
2010,05,04,03,44,2.00
2010,05,04,03,45,1.40
2010,05,04,03,46,3.30
2010,05,04,03,47,2.40
2010,05,04,03,48,7.50
2010,05,04,03,49,3.40
2010,05,04,03,50,4.80
2010,05,04,03,51,3.20
2010,05,04,03,52,5.20
2010,05,04,03,53,3.40
2010,05,04,03,54,2.60
2010,05,04,03,55,3.00
2010,05,04,03,56,6.10
2010,05,04,03,57,5.30
2010,05,04,03,58,3.80
2010,05,04,03,59,2.90
2010,05,04,04,00,4.70
2010,05,04,04,01,5.40
2010,05,04,04,02,5.00
2010,05,04,04,03,5.50
2010,05,04,04,04,1.50
2010,05,04,04,05,0.40
2010,05,04,04,06,1.60
2010,05,04,04,07,2.10
2010,05,04,04,08,3.10
2010,05,04,04,09,7.80
2010,05,04,04,10,2.60
2010,05,04,04,11,0.70
2010,05,04,04,12,4.60
2010,05,04,04,13,4.10
2010,05,04,04,14,6.10
2010,05,04,04,15,1.80
2010,05,04,04,16,4.00
2010,05,04,04,17,3.30
2010,05,04,04,18,0.00
2010,05,04,04,19,0.00
2010,05,04,04,20,0.30
2010,05,04,04,21,0.70
2010,05,04,04,22,1.90
2010,05,04,04,23,3.10
2010,05,04,04,24,3.70
2010,05,04,04,25,2.50
2010,05,04,04,26,4.20
2010,05,04,04,27,6.40
2010,05,04,04,28,6.90
2010,05,04,04,29,7.50
2010,05,04,04,30,6.40
2010,05,04,04,31,5.80
2010,05,04,04,32,12.90
2010,05,04,04,33,7.50
2010,05,04,04,34,4.30
2010,05,04,04,35,7.20
2010,05,04,04,36,4.20
2010,05,04,04,37,3.70
2010,05,04,04,38,4.50
2010,05,04,04,39,6.40
2010,05,04,04,40,12.10
2010,05,04,04,41,3.40
2010,05,04,04,42,2.50
2010,05,04,04,43,2.10
2010,05,04,04,44,8.10
2010,05,04,04,45,6.00
2010,05,04,04,46,2.80
2010,05,04,04,47,3.70
2010,05,04,04,48,7.20
2010,05,04,04,49,9.30
2010,05,04,04,50,7.00
2010,05,04,04,51,5.60
2010,05,04,04,52,6.30
2010,05,04,04,53,5.50
2010,05,04,04,54,7.20
2010,05,04,04,55,6.60
2010,05,04,04,56,6.70
2010,05,04,04,57,5.10
2010,05,04,04,58,6.60
2010,05,04,04,59,1.80
2010,05,04,05,00,0.90
2010,05,04,05,01,5.20
2010,05,04,05,02,6.40
2010,05,04,05,03,9.50
2010,05,04,05,04,2.10
2010,05,04,05,05,3.90
2010,05,04,05,06,2.60
2010,05,04,05,07,7.00
2010,05,04,05,08,5.60
2010,05,04,05,09,7.10
2010,05,04,05,10,5.80
2010,05,04,05,11,3.30
2010,05,04,05,12,5.30
2010,05,04,05,13,3.70
2010,05,04,05,14,5.10
2010,05,04,05,15,4.60
2010,05,04,05,16,3.90
2010,05,04,05,17,5.50
2010,05,04,05,18,3.20
2010,05,04,05,19,3.40
2010,05,04,05,20,4.60
2010,05,04,05,21,6.60
2010,05,04,05,22,1.80
2010,05,04,05,23,5.40
2010,05,04,05,24,3.20
2010,05,04,05,25,1.20
2010,05,04,05,26,4.80
2010,05,04,05,27,5.70
2010,05,04,05,28,2.90
2010,05,04,05,29,2.70
2010,05,04,05,30,3.60
2010,05,04,05,31,5.60
2010,05,04,05,32,4.80
2010,05,04,05,33,2.80
2010,05,04,05,34,3.50
2010,05,04,05,35,6.10
2010,05,04,05,36,4.40
2010,05,04,05,37,3.90
2010,05,04,05,38,3.50
2010,05,04,05,39,2.00
2010,05,04,05,40,3.50
2010,05,04,05,41,5.40
2010,05,04,05,42,5.30
2010,05,04,05,43,3.10
2010,05,04,05,44,4.50
2010,05,04,05,45,6.50
2010,05,04,05,46,5.50
2010,05,04,05,47,6.70
2010,05,04,05,48,5.30
2010,05,04,05,49,5.40
2010,05,04,05,50,4.70
2010,05,04,05,51,7.10
2010,05,04,05,52,11.10
2010,05,04,05,53,1.10
2010,05,04,05,54,7.50
2010,05,04,05,55,7.00
2010,05,04,05,56,8.90
2010,05,04,05,57,8.80
2010,05,04,05,58,7.70
2010,05,04,05,59,5.70
2010,05,04,06,00,5.70
2010,05,04,06,01,4.00
2010,05,04,06,02,7.90
2010,05,04,06,03,7.50
2010,05,04,06,04,9.20
2010,05,04,06,05,6.00
2010,05,04,06,06,5.80
2010,05,04,06,07,1.90
2010,05,04,06,08,5.00
2010,05,04,06,09,4.60
2010,05,04,06,10,7.80
2010,05,04,06,11,6.20
2010,05,04,06,12,6.70
2010,05,04,06,13,6.60
2010,05,04,06,14,3.60
2010,05,04,06,15,3.10
2010,05,04,06,16,5.00
2010,05,04,06,17,6.50
2010,05,04,06,18,6.10
2010,05,04,06,19,6.80
2010,05,04,06,20,4.40
2010,05,04,06,21,5.20
2010,05,04,06,22,5.90
2010,05,04,06,23,5.20
2010,05,04,06,24,3.90
2010,05,04,06,25,2.90
2010,05,04,06,26,1.50
2010,05,04,06,27,1.40
2010,05,04,06,28,0.00
2010,05,04,06,29,1.80
2010,05,04,06,30,2.00
2010,05,04,06,31,2.40
2010,05,04,06,32,3.70
2010,05,04,06,33,5.40
2010,05,04,06,34,3.80
2010,05,04,06,35,5.20
2010,05,04,06,36,5.30
2010,05,04,06,37,3.60
2010,05,04,06,38,4.20
2010,05,04,06,39,4.30
2010,05,04,06,40,2.70
2010,05,04,06,41,1.80
2010,05,04,06,42,3.40
2010,05,04,06,43,6.90
2010,05,04,06,44,5.60
2010,05,04,06,45,4.30
2010,05,04,06,46,4.50
2010,05,04,06,47,3.80
2010,05,04,06,48,6.00
2010,05,04,06,49,3.10
2010,05,04,06,50,3.50
2010,05,04,06,51,3.90
2010,05,04,06,52,1.70
2010,05,04,06,53,0.00
2010,05,04,06,54,2.60
2010,05,04,06,55,3.30
2010,05,04,06,56,1.20
2010,05,04,06,57,0.60
2010,05,04,06,58,4.80
2010,05,04,06,59,2.30
2010,05,04,07,00,5.70
2010,05,04,07,01,4.60
2010,05,04,07,02,3.50
2010,05,04,07,03,3.50
2010,05,04,07,04,4.20
2010,05,04,07,05,3.60
2010,05,04,07,06,4.60
2010,05,04,07,07,2.30
2010,05,04,07,08,4.10
2010,05,04,07,09,4.80
2010,05,04,07,10,7.50
2010,05,04,07,11,7.00
2010,05,04,07,12,8.90
2010,05,04,07,13,7.90
2010,05,04,07,14,7.50
2010,05,04,07,15,3.20
2010,05,04,07,16,4.00
2010,05,04,07,17,4.80
2010,05,04,07,18,2.60
2010,05,04,07,19,4.90
2010,05,04,07,20,5.60
2010,05,04,07,21,7.30
2010,05,04,07,22,6.40
2010,05,04,07,23,1.40
2010,05,04,07,24,5.80
2010,05,04,07,25,5.90
2010,05,04,07,26,4.20
2010,05,04,07,27,5.00
2010,05,04,07,28,1.60
2010,05,04,07,29,1.40
2010,05,04,07,30,3.40
2010,05,04,07,31,5.40
2010,05,04,07,32,1.60
2010,05,04,07,33,3.10
2010,05,04,07,34,4.40
2010,05,04,07,35,2.80
2010,05,04,07,36,6.60
2010,05,04,07,37,7.50
2010,05,04,07,38,6.90
2010,05,04,07,39,3.50
2010,05,04,07,40,3.80
2010,05,04,07,41,7.00
2010,05,04,07,42,6.60
2010,05,04,07,43,1.70
2010,05,04,07,44,8.20
2010,05,04,07,45,10.30
2010,05,04,07,46,7.90
2010,05,04,07,47,9.70
2010,05,04,07,48,5.10
2010,05,04,07,49,8.60
2010,05,04,07,50,6.30
2010,05,04,07,51,3.10
2010,05,04,07,52,2.30
2010,05,04,07,53,8.50
2010,05,04,07,54,9.30
2010,05,04,07,55,8.00
2010,05,04,07,56,9.10
2010,05,04,07,57,6.30
2010,05,04,07,58,9.60
2010,05,04,07,59,6.90
2010,05,04,08,00,14.00
2010,05,04,08,01,10.50
2010,05,04,08,02,9.90
2010,05,04,08,03,7.20
2010,05,04,08,04,10.80
2010,05,04,08,05,12.80
2010,05,04,08,06,12.10
2010,05,04,08,07,10.10
2010,05,04,08,08,9.90
2010,05,04,08,09,13.80
2010,05,04,08,10,13.30
2010,05,04,08,11,10.50
2010,05,04,08,12,15.50
2010,05,04,08,13,8.90
2010,05,04,08,14,8.80
2010,05,04,08,15,8.70
2010,05,04,08,16,11.90
2010,05,04,08,17,9.20
2010,05,04,08,18,7.50
2010,05,04,08,19,11.00
2010,05,04,08,20,8.30
2010,05,04,08,21,10.10
2010,05,04,08,22,14.70
2010,05,04,08,23,9.60
2010,05,04,08,24,6.30
2010,05,04,08,25,5.80
2010,05,04,08,26,7.90
2010,05,04,08,27,6.00
2010,05,04,08,28,12.60
2010,05,04,08,29,12.10
2010,05,04,08,30,11.80
2010,05,04,08,31,10.60
2010,05,04,08,32,5.00
2010,05,04,08,33,9.80
2010,05,04,08,34,12.10
2010,05,04,08,35,7.20
2010,05,04,08,36,9.50
2010,05,04,08,37,8.60
2010,05,04,08,38,7.70
2010,05,04,08,39,5.90
2010,05,04,08,40,5.00
2010,05,04,08,41,8.00
2010,05,04,08,42,10.60
2010,05,04,08,43,9.20
2010,05,04,08,44,10.20
2010,05,04,08,45,9.30
2010,05,04,08,46,7.60
2010,05,04,08,47,8.90
2010,05,04,08,48,9.00
2010,05,04,08,49,8.90
2010,05,04,08,50,6.30
2010,05,04,08,51,8.90
2010,05,04,08,52,7.80
2010,05,04,08,53,5.00
2010,05,04,08,54,4.70
2010,05,04,08,55,7.90
2010,05,04,08,56,8.90
2010,05,04,08,57,8.30
2010,05,04,08,58,7.10
2010,05,04,08,59,10.10
2010,05,04,09,00,9.30
2010,05,04,09,01,3.40
2010,05,04,09,02,7.20
2010,05,04,09,03,6.20
2010,05,04,09,04,7.40
2010,05,04,09,05,14.30
2010,05,04,09,06,6.40
2010,05,04,09,07,5.20
2010,05,04,09,08,16.30
2010,05,04,09,09,9.70
2010,05,04,09,10,14.30
2010,05,04,09,11,18.80
2010,05,04,09,12,15.70
2010,05,04,09,13,13.40
2010,05,04,09,14,14.50
2010,05,04,09,15,12.80
2010,05,04,09,16,12.10
2010,05,04,09,17,10.80
2010,05,04,09,18,12.50
2010,05,04,09,19,9.90
2010,05,04,09,20,5.80
2010,05,04,09,21,17.40
2010,05,04,09,22,13.00
2010,05,04,09,23,12.00
2010,05,04,09,24,14.90
2010,05,04,09,25,9.70
2010,05,04,09,26,11.50
2010,05,04,09,27,12.70
2010,05,04,09,28,11.30
2010,05,04,09,29,14.50
2010,05,04,09,30,16.00
2010,05,04,09,31,15.30
2010,05,04,09,32,12.00
2010,05,04,09,33,10.70
2010,05,04,09,34,9.70
2010,05,04,09,35,10.80
2010,05,04,09,36,15.20
2010,05,04,09,37,14.90
2010,05,04,09,38,14.80
2010,05,04,09,39,11.20
2010,05,04,09,40,12.60
2010,05,04,09,41,13.10
2010,05,04,09,42,12.20
2010,05,04,09,43,10.60
2010,05,04,09,44,11.10
2010,05,04,09,45,16.90
2010,05,04,09,46,7.00
2010,05,04,09,47,12.30
2010,05,04,09,48,8.60
2010,05,04,09,49,11.10
2010,05,04,09,50,17.10
2010,05,04,09,51,13.70
2010,05,04,09,52,11.60
2010,05,04,09,53,10.20
2010,05,04,09,54,11.60
2010,05,04,09,55,13.00
2010,05,04,09,56,15.60
2010,05,04,09,57,15.20
2010,05,04,09,58,13.00
2010,05,04,09,59,10.30
2010,05,04,10,00,10.50
2010,05,04,10,01,7.20
2010,05,04,10,02,17.90
2010,05,04,10,03,15.40
2010,05,04,10,04,8.30
2010,05,04,10,05,9.60
2010,05,04,10,06,14.70
2010,05,04,10,07,16.20
2010,05,04,10,08,15.30
2010,05,04,10,09,12.30
2010,05,04,10,10,11.70
2010,05,04,10,11,11.60
2010,05,04,10,12,15.90
2010,05,04,10,13,18.60
2010,05,04,10,14,8.50
2010,05,04,10,15,10.30
2010,05,04,10,16,7.40
2010,05,04,10,17,13.50
2010,05,04,10,18,9.80
2010,05,04,10,19,18.70
2010,05,04,10,20,17.10
2010,05,04,10,21,14.80
2010,05,04,10,22,13.40
2010,05,04,10,23,10.20
2010,05,04,10,24,12.70
2010,05,04,10,25,10.30
2010,05,04,10,26,10.90
2010,05,04,10,27,8.30
2010,05,04,10,28,11.30
2010,05,04,10,29,17.40
2010,05,04,10,30,8.00
2010,05,04,10,31,16.50
2010,05,04,10,32,18.00
2010,05,04,10,33,17.50
2010,05,04,10,34,10.90
2010,05,04,10,35,13.00
2010,05,04,10,36,12.50
2010,05,04,10,37,15.20
2010,05,04,10,38,13.60
2010,05,04,10,39,7.60
2010,05,04,10,40,12.40
2010,05,04,10,41,12.20
2010,05,04,10,42,12.40
2010,05,04,10,43,13.10
2010,05,04,10,44,11.10
2010,05,04,10,45,13.40
2010,05,04,10,46,11.20
2010,05,04,10,47,16.00
2010,05,04,10,48,14.90
2010,05,04,10,49,12.30
2010,05,04,10,50,6.50
2010,05,04,10,51,11.70
2010,05,04,10,52,8.30
2010,05,04,10,53,11.40
2010,05,04,10,54,9.70
2010,05,04,10,55,5.80
2010,05,04,10,56,9.70
2010,05,04,10,57,17.90
2010,05,04,10,58,19.00
2010,05,04,10,59,6.80
2010,05,04,11,00,10.60
2010,05,04,11,01,12.70
2010,05,04,11,02,9.60
2010,05,04,11,03,8.20
2010,05,04,11,04,9.30
2010,05,04,11,05,2.10
2010,05,04,11,06,8.00
2010,05,04,11,07,7.20
2010,05,04,11,08,1.30
2010,05,04,11,09,3.50
2010,05,04,11,10,6.60
2010,05,04,11,11,13.90
2010,05,04,11,12,9.70
2010,05,04,11,13,14.10
2010,05,04,11,14,9.60
2010,05,04,11,15,9.70
2010,05,04,11,16,12.10
2010,05,04,11,17,9.30
2010,05,04,11,18,18.70
2010,05,04,11,19,14.30
2010,05,04,11,20,12.10
2010,05,04,11,21,14.30
2010,05,04,11,22,9.30
2010,05,04,11,23,13.50
2010,05,04,11,24,12.90
2010,05,04,11,25,13.90
2010,05,04,11,26,10.60
2010,05,04,11,27,13.00
2010,05,04,11,28,11.30
2010,05,04,11,29,8.50
2010,05,04,11,30,17.20
2010,05,04,11,31,10.80
2010,05,04,11,32,10.50
2010,05,04,11,33,9.70
2010,05,04,11,34,8.40
2010,05,04,11,35,10.30
2010,05,04,11,36,4.60
2010,05,04,11,37,9.50
2010,05,04,11,38,12.50
2010,05,04,11,39,18.10
2010,05,04,11,40,14.70
2010,05,04,11,41,13.40
2010,05,04,11,42,15.50
2010,05,04,11,43,12.30
2010,05,04,11,44,12.00
2010,05,04,11,45,13.50
2010,05,04,11,46,9.70
2010,05,04,11,47,9.90
2010,05,04,11,48,6.60
2010,05,04,11,49,4.40
2010,05,04,11,50,6.50
2010,05,04,11,51,7.00
2010,05,04,11,52,13.40
2010,05,04,11,53,9.10
2010,05,04,11,54,11.00
2010,05,04,11,55,10.10
2010,05,04,11,56,5.10
2010,05,04,11,57,8.20
2010,05,04,11,58,10.90
2010,05,04,11,59,9.40
2010,05,04,12,00,11.40
2010,05,04,12,01,13.90
2010,05,04,12,02,8.90
2010,05,04,12,03,9.00
2010,05,04,12,04,5.20
2010,05,04,12,05,6.10
2010,05,04,12,06,15.70
2010,05,04,12,07,12.60
2010,05,04,12,08,11.80
2010,05,04,12,09,5.60
2010,05,04,12,10,9.90
2010,05,04,12,11,9.70
2010,05,04,12,12,6.70
2010,05,04,12,13,9.20
2010,05,04,12,14,13.60
2010,05,04,12,15,15.60
2010,05,04,12,16,19.60
2010,05,04,12,17,13.90
2010,05,04,12,18,9.60
2010,05,04,12,19,11.60
2010,05,04,12,20,10.80
2010,05,04,12,21,8.50
2010,05,04,12,22,12.10
2010,05,04,12,23,9.30
2010,05,04,12,24,6.30
2010,05,04,12,25,11.90
2010,05,04,12,26,10.20
2010,05,04,12,27,8.70
2010,05,04,12,28,8.00
2010,05,04,12,29,13.40
2010,05,04,12,30,12.50
2010,05,04,12,31,13.10
2010,05,04,12,32,13.10
2010,05,04,12,33,14.00
2010,05,04,12,34,6.50
2010,05,04,12,35,12.30
2010,05,04,12,36,5.60
2010,05,04,12,37,4.80
2010,05,04,12,38,4.20
2010,05,04,12,39,4.50
2010,05,04,12,40,7.80
2010,05,04,12,41,8.80
2010,05,04,12,42,9.70
2010,05,04,12,43,13.50
2010,05,04,12,44,8.60
2010,05,04,12,45,5.60
2010,05,04,12,46,9.10
2010,05,04,12,47,12.80
2010,05,04,12,48,13.00
2010,05,04,12,49,7.60
2010,05,04,12,50,15.00
2010,05,04,12,51,6.00
2010,05,04,12,52,9.50
2010,05,04,12,53,14.40
2010,05,04,12,54,8.90
2010,05,04,12,55,5.60
2010,05,04,12,56,7.90
2010,05,04,12,57,6.30
2010,05,04,12,58,11.50
2010,05,04,12,59,13.20
2010,05,04,13,00,5.90
2010,05,04,13,01,10.80
2010,05,04,13,02,13.40
2010,05,04,13,03,11.00
2010,05,04,13,04,6.90
2010,05,04,13,05,8.20
2010,05,04,13,06,16.60
2010,05,04,13,07,15.90
2010,05,04,13,08,14.20
2010,05,04,13,09,14.60
2010,05,04,13,10,8.90
2010,05,04,13,11,11.50
2010,05,04,13,12,13.00
2010,05,04,13,13,13.10
2010,05,04,13,14,14.60
2010,05,04,13,15,13.40
2010,05,04,13,16,11.00
2010,05,04,13,17,10.20
2010,05,04,13,18,13.00
2010,05,04,13,19,14.80
2010,05,04,13,20,5.10
2010,05,04,13,21,8.20
2010,05,04,13,22,14.30
2010,05,04,13,23,15.30
2010,05,04,13,24,11.20
2010,05,04,13,25,13.60
2010,05,04,13,26,9.20
2010,05,04,13,27,14.70
2010,05,04,13,28,12.20
2010,05,04,13,29,13.00
2010,05,04,13,30,16.50
2010,05,04,13,31,18.40
2010,05,04,13,32,9.80
2010,05,04,13,33,7.20
2010,05,04,13,34,10.30
2010,05,04,13,35,3.90
2010,05,04,13,36,7.10
2010,05,04,13,37,6.80
2010,05,04,13,38,8.40
2010,05,04,13,39,6.90
2010,05,04,13,40,8.50
2010,05,04,13,41,5.60
2010,05,04,13,42,4.70
2010,05,04,13,43,8.30
2010,05,04,13,44,10.00
2010,05,04,13,45,8.90
2010,05,04,13,46,8.70
2010,05,04,13,47,9.90
2010,05,04,13,48,11.50
2010,05,04,13,49,13.70
2010,05,04,13,50,12.30
2010,05,04,13,51,10.90
2010,05,04,13,52,9.00
2010,05,04,13,53,8.60
2010,05,04,13,54,10.20
2010,05,04,13,55,9.50
2010,05,04,13,56,7.30
2010,05,04,13,57,12.50
2010,05,04,13,58,6.80
2010,05,04,13,59,6.10
2010,05,04,14,00,6.80
2010,05,04,14,01,4.10
2010,05,04,14,02,7.50
2010,05,04,14,03,3.70
2010,05,04,14,04,3.80
2010,05,04,14,05,10.80
2010,05,04,14,06,13.00
2010,05,04,14,07,4.20
2010,05,04,14,08,6.20
2010,05,04,14,09,8.50
2010,05,04,14,10,7.40
2010,05,04,14,11,9.00
2010,05,04,14,12,13.00
2010,05,04,14,13,9.50
2010,05,04,14,14,10.80
2010,05,04,14,15,8.30
2010,05,04,14,16,9.30
2010,05,04,14,17,9.60
2010,05,04,14,18,10.70
2010,05,04,14,19,12.50
2010,05,04,14,20,14.20
2010,05,04,14,21,15.80
2010,05,04,14,22,16.00
2010,05,04,14,23,15.10
2010,05,04,14,24,11.50
2010,05,04,14,25,11.20
2010,05,04,14,26,12.80
2010,05,04,14,27,6.00
2010,05,04,14,28,13.10
2010,05,04,14,29,7.20
2010,05,04,14,30,11.60
2010,05,04,14,31,8.30
2010,05,04,14,32,5.70
2010,05,04,14,33,12.10
2010,05,04,14,34,10.10
2010,05,04,14,35,13.10
2010,05,04,14,36,14.70
2010,05,04,14,37,14.00
2010,05,04,14,38,7.90
2010,05,04,14,39,10.60
2010,05,04,14,40,11.80
2010,05,04,14,41,5.70
2010,05,04,14,42,12.20
2010,05,04,14,43,13.70
2010,05,04,14,44,6.70
2010,05,04,14,45,13.00
2010,05,04,14,46,10.10
2010,05,04,14,47,9.00
2010,05,04,14,48,12.20
2010,05,04,14,49,12.20
2010,05,04,14,50,10.80
2010,05,04,14,51,12.80
2010,05,04,14,52,12.50
2010,05,04,14,53,15.30
2010,05,04,14,54,16.30
2010,05,04,14,55,16.50
2010,05,04,14,56,17.40
2010,05,04,14,57,18.40
2010,05,04,14,58,9.20
2010,05,04,14,59,12.30
2010,05,04,15,00,11.60
2010,05,04,15,01,14.10
2010,05,04,15,02,8.60
2010,05,04,15,03,5.80
2010,05,04,15,04,15.20
2010,05,04,15,05,12.60
2010,05,04,15,06,14.80
2010,05,04,15,07,11.10
2010,05,04,15,08,7.90
2010,05,04,15,09,16.40
2010,05,04,15,10,11.70
2010,05,04,15,11,13.50
2010,05,04,15,12,7.50
2010,05,04,15,13,13.60
2010,05,04,15,14,13.90
2010,05,04,15,15,15.20
2010,05,04,15,16,15.40
2010,05,04,15,17,15.00
2010,05,04,15,18,14.20
2010,05,04,15,19,12.60
2010,05,04,15,20,11.90
2010,05,04,15,21,14.20
2010,05,04,15,22,9.60
2010,05,04,15,23,12.30
2010,05,04,15,24,16.90
2010,05,04,15,25,11.20
2010,05,04,15,26,14.40
2010,05,04,15,27,18.00
2010,05,04,15,28,13.20
2010,05,04,15,29,10.90
2010,05,04,15,30,7.10
2010,05,04,15,31,13.50
2010,05,04,15,32,8.70
2010,05,04,15,33,15.20
2010,05,04,15,34,16.90
2010,05,04,15,35,15.70
2010,05,04,15,36,11.00
2010,05,04,15,37,8.10
2010,05,04,15,38,16.10
2010,05,04,15,39,13.80
2010,05,04,15,40,11.40
2010,05,04,15,41,9.10
2010,05,04,15,42,16.50
2010,05,04,15,43,11.90
2010,05,04,15,44,9.90
2010,05,04,15,45,17.00
2010,05,04,15,46,17.40
2010,05,04,15,47,17.60
2010,05,04,15,48,16.60
2010,05,04,15,49,10.30
2010,05,04,15,50,10.80
2010,05,04,15,51,11.10
2010,05,04,15,52,8.40
2010,05,04,15,53,17.30
2010,05,04,15,54,16.20
2010,05,04,15,55,8.80
2010,05,04,15,56,5.30
2010,05,04,15,57,11.20
2010,05,04,15,58,10.10
2010,05,04,15,59,6.70
2010,05,04,16,00,14.80
2010,05,04,16,01,17.80
2010,05,04,16,02,15.80
2010,05,04,16,03,10.80
2010,05,04,16,04,18.00
2010,05,04,16,05,14.20
2010,05,04,16,06,11.90
2010,05,04,16,07,11.90
2010,05,04,16,08,15.80
2010,05,04,16,09,15.00
2010,05,04,16,10,12.20
2010,05,04,16,11,5.80
2010,05,04,16,12,7.10
2010,05,04,16,13,14.50
2010,05,04,16,14,4.90
2010,05,04,16,15,3.10
2010,05,04,16,16,5.10
2010,05,04,16,17,5.20
2010,05,04,16,18,4.50
2010,05,04,16,19,8.20
2010,05,04,16,20,13.10
2010,05,04,16,21,10.30
2010,05,04,16,22,0.90
2010,05,04,16,23,7.90
2010,05,04,16,24,7.50
2010,05,04,16,25,3.20
2010,05,04,16,26,8.50
2010,05,04,16,27,6.00
2010,05,04,16,28,10.80
2010,05,04,16,29,6.80
2010,05,04,16,30,6.30
2010,05,04,16,31,13.10
2010,05,04,16,32,8.90
2010,05,04,16,33,7.00
2010,05,04,16,34,3.40
2010,05,04,16,35,9.20
2010,05,04,16,36,14.70
2010,05,04,16,37,15.40
2010,05,04,16,38,6.90
2010,05,04,16,39,4.30
2010,05,04,16,40,5.50
2010,05,04,16,41,5.10
2010,05,04,16,42,9.70
2010,05,04,16,43,11.70
2010,05,04,16,44,14.20
2010,05,04,16,45,10.20
2010,05,04,16,46,11.90
2010,05,04,16,47,13.20
2010,05,04,16,48,9.10
2010,05,04,16,49,5.00
2010,05,04,16,50,10.40
2010,05,04,16,51,9.00
2010,05,04,16,52,9.30
2010,05,04,16,53,10.90
2010,05,04,16,54,5.20
2010,05,04,16,55,9.60
2010,05,04,16,56,6.00
2010,05,04,16,57,7.20
2010,05,04,16,58,10.60
2010,05,04,16,59,10.80
2010,05,04,17,00,4.60
2010,05,04,17,01,4.20
2010,05,04,17,02,7.90
2010,05,04,17,03,7.30
2010,05,04,17,04,8.40
2010,05,04,17,05,8.50
2010,05,04,17,06,6.10
2010,05,04,17,07,8.10
2010,05,04,17,08,4.20
2010,05,04,17,09,4.80
2010,05,04,17,10,7.20
2010,05,04,17,11,5.90
2010,05,04,17,12,2.60
2010,05,04,17,13,7.90
2010,05,04,17,14,6.30
2010,05,04,17,15,5.30
2010,05,04,17,16,4.90
2010,05,04,17,17,6.10
2010,05,04,17,18,6.20
2010,05,04,17,19,5.50
2010,05,04,17,20,8.00
2010,05,04,17,21,5.80
2010,05,04,17,22,8.00
2010,05,04,17,23,7.60
2010,05,04,17,24,8.20
2010,05,04,17,25,4.20
2010,05,04,17,26,6.80
2010,05,04,17,27,4.60
2010,05,04,17,28,0.50
2010,05,04,17,29,1.70
2010,05,04,17,30,5.30
2010,05,04,17,31,6.00
2010,05,04,17,32,2.50
2010,05,04,17,33,3.40
2010,05,04,17,34,2.20
2010,05,04,17,35,3.70
2010,05,04,17,36,5.30
2010,05,04,17,37,0.60
2010,05,04,17,38,2.90
2010,05,04,17,39,0.80
2010,05,04,17,40,2.70
2010,05,04,17,41,0.80
2010,05,04,17,42,3.60
2010,05,04,17,43,2.60
2010,05,04,17,44,0.30
2010,05,04,17,45,0.20
2010,05,04,17,46,3.30
2010,05,04,17,47,5.40
2010,05,04,17,48,4.80
2010,05,04,17,49,0.10
2010,05,04,17,50,0.10